Location: Frydek-Mistek
(49.6830°N, 18.3330°E)
Time: 05:50:15
(UTC+02:00)

ISS - Pass Details

Date: 20 May 2021
Orbit: 417 x 422 km, 51.6° (Epoch: 13 June)

Event Time Altitude Azimuth Distance (km) Brightness Sun altitude
Rises 01:20:02 0° 288° (WNW) 2,371 0.2 -19.9°
Reaches altitude 10° 01:22:11 10° 283° (WNW) 1,505 -0.9 -19.8°
Enters shadow 01:23:07 17° 277° (W) 1,143 -1.6 -19.8°
